This is the latest recevied weather packets stored in our database for station/object KF0JHJ. If no packets are shown the sender has not sent any weather packets the latest 10 day(s).
| Time | Temp. | Humidity | Pressure | Rain* | Wind** | Luminosity | Snow |
|---|---|---|---|---|---|---|---|
| 1777860081 | 14.44° C | 50% | 1001.9 hPa | - | - | 0 W/m² | - |
| 1777859777 | 14.44° C | 48% | 1002 hPa | - | - | 0 W/m² | - |
| 1777859474 | 14.44° C | 47% | 1002 hPa | - | - | 0 W/m² | - |
| 1777859170 | 14.44° C | 46% | 1002.1 hPa | - | - | 0 W/m² | - |
| 1777858867 | 15° C | 45% | 1002.1 hPa | - | - | 0 W/m² | - |
| 1777858564 | 15° C | 46% | 1002.2 hPa | - | - | 0 W/m² | - |
| 1777858261 | 15.56° C | 43% | 1002.4 hPa | - | - | 0 W/m² | - |
| 1777857959 | 15.56° C | 43% | 1002.2 hPa | - | - | 0 W/m² | - |
| 1777857657 | 16.11° C | 42% | 1002.2 hPa | - | - | 0 W/m² | - |
| 1777857353 | 16.11° C | 42% | 1002.3 hPa | - | - | 1 W/m² | - |
| 1777857049 | 16.11° C | 40% | 1002.1 hPa | - | - | 5 W/m² | - |
| 1777856745 | 16.67° C | 42% | 1002.3 hPa | - | - | 9 W/m² | - |
| 1777856441 | 17.22° C | 39% | 1002.6 hPa | - | - | 12 W/m² | - |
| 1777856138 | 17.22° C | 38% | 1002.4 hPa | - | - | 11 W/m² | - |
| 1777855836 | 17.78° C | 39% | 1002.4 hPa | - | - | 10 W/m² | - |
| 1777855533 | 17.78° C | 38% | 1002.2 hPa | - | - | 12 W/m² | - |
| 1777855230 | 18.33° C | 36% | 1002.6 hPa | - | - | 16 W/m² | - |
| 1777854926 | 18.89° C | 35% | 1002.6 hPa | - | - | 17 W/m² | - |
| 1777854623 | 18.89° C | 34% | 1002.4 hPa | - | - | 17 W/m² | - |
| 1777854320 | 18.89° C | 36% | 1002.6 hPa | - | - | 21 W/m² | - |
| 1777854017 | 19.44° C | 34% | 1002.7 hPa | - | - | 26 W/m² | - |
| 1777853715 | 19.44° C | 34% | 1002.7 hPa | - | - | 31 W/m² | - |
| 1777853411 | 19.44° C | 33% | 1002.6 hPa | - | - | 34 W/m² | - |
| 1777853108 | 20° C | 31% | 1002.6 hPa | - | - | 37 W/m² | - |
| 1777852805 | 20° C | 31% | 1002.9 hPa | - | - | 35 W/m² | - |
* Rain since midnight (hover to see other rain measurements)
** Current wind speed in m/s (hover to see current wind gust speed)